[[{"header":{"parameterUnit":"m.s-1","parameterCategory":1,"la1":30.2991,"la2":30.254,"lo1":-89.0895,"lo2":-89.0444,"dy":0.0017,"dx":0.0017,"nx":28,"ny":28,"refTime":"2023-11-20T03:00:00:Z","depth":0,"parameterNumber":2,"parameterNumberName":"U-component_of_WINDS"},"data":[0,0,0,0,0,0,0,0,0,0,0,0,0,0,0,0,0,0,0,0,0,0,0,0,0,0,0,0,0,0,0,0,0,0,0,0,0,0,0,0,0,0,0,0,0,0,0,0,0,0,0,0,0,0,0,0,0,0,-3.997,-3.9972,0,-4.0135,-4.0137,-4.0139,-4.0218,-4.0218,-4.0218,-4.0218,-4.0386,-4.039,-4.0395,0,0,0,0,0,0,0,0,0,0,0,0,0,-3.9724,-3.9728,-3.997,-3.9972,-3.9974,-4.0135,-4.0137,-4.0139,-4.0218,-4.0218,-4.0218,-4.0217,-4.0384,-4.039,-4.0395,0,0,0,0,0,0,0,0,0,0,0,0,0,-3.9854,-3.973,-3.997,-4.0033,-4.004,-4.0134,-4.0137,-4.014,-4.0218,-4.0218,-4.0218,-4.0217,-4.0383,-4.0389,-4.0396,-4.044,0,0,-4.0417,-4.042,0,0,0,0,0,0,0,0,-3.9847,-3.9863,-4.0022,-4.0029,-4.0037,-4.0156,-4.0112,-4.024,-4.0218,-4.015,-4.0217,-4.0217,-4.0309,-4.0322,-4.0353,-4.0448,-4.0455,-4.0417,-4.0422,-4.0424,-4.0426,0,0,0,0,0,0,0,-3.9837,-3.9856,-4.0035,-4.0024,-4.0033,-4.0053,-4.0071,-4.0137,-4.0228,-4.0156,-4.0162,-4.0181,-4.0314,-4.0346,-4.0358,-4.0457,-4.0417,-4.0423,-4.0427,-4.043,-4.0596,-4.0597,0,0,0,0,0,0,-3.9818,-3.9848,-4.003,-4.004,-3.994,-4.0057,-4.0078,-4.0118,-4.0228,-4.0245,-4.0181,-4.0184,-4.0335,-4.035,-4.0364,-4.0423,-4.0424,-4.0431,-4.0435,-4.0596,-4.0596,-4.0597,0,0,0,0,0,0,-3.9813,-3.9834,-4.0024,-3.9946,-3.9972,-4.0062,-4.0106,-4.0121,-4.0154,-4.0246,-4.0263,-4.0197,-4.0335,-4.0354,-4.042,-4.043,-4.0434,-4.044,-4.0596,-4.0596,-4.0597,-4.0541,0,0,0,0,0,0,-3.9805,-3.9831,-3.9849,-3.9946,-3.9976,-4.0077,-4.0106,-4.0124,-4.0165,-4.0171,-4.0266,-4.0282,-4.0337,-4.041,-4.0427,-4.0439,-4.0445,-4.0595,-4.0596,-4.0596,-4.0542,-4.0539,-4.0537,0,0,0,0,0,-3.9796,-3.9826,-3.9849,-3.9871,-3.9999,-4.0077,-4.0094,-4.0157,-4.0166,-4.0184,-4.0244,-4.0279,-4.0426,-4.0416,-4.0436,-4.045,-4.0595,-4.0596,-4.0596,-4.0543,-4.054,-4.0537,0,0,0,0,0,0,-3.9728,-3.984,-3.9867,-3.9929,-3.9993,-4.009,-4.0116,-4.0151,-4.0213,-4.0216,-4.0291,-4.0312,-4.0371,-4.0418,-4.0404,-4.0499,-4.0514,-4.0519,-4.0466,-4.0464,-4.0461,-4.0449,-4.0451,0,0,0,0,0,-3.972,-3.9774,-3.9869,-3.9915,-3.9946,-4.0025,-4.0061,-4.0104,-4.0173,-4.02,-4.0265,-4.033,-4.0392,-4.043,-4.0492,-4.0549,-4.0571,-4.0569,-4.0566,-4.0563,-4.0567,-4.0601,-4.0602,-4.0599,-4.0599,-4.0599,0,0,-3.9705,-3.9773,-3.9802,-3.9903,-3.9958,-4.0012,-4.0047,-4.0103,-4.0144,-4.0209,-4.0275,-4.0324,-4.0403,-4.0465,-4.0496,-4.0506,-4.0572,-4.0564,-4.0562,-4.0567,-4.0602,-4.0602,-4.0602,-4.06,-4.06,-4.06,0,0,-3.9704,-3.9761,-3.9806,-3.9859,-3.9941,-3.9994,-4.0004,-4.0097,-4.0132,-4.02,-4.0249,-4.0299,-4.0403,-4.0457,-4.0498,-4.0518,-4.0553,-4.0536,-4.0522,-4.0555,-4.0555,-4.0555,-4.0563,-4.0565,-4.0539,-4.0539,-4.0538,0,-3.9675,-3.9759,-3.9824,-3.9877,-3.992,-3.9981,-4.0027,-4.0076,-4.0174,-4.0202,-4.0212,-4.0344,-4.0401,-4.0477,-4.0481,-4.0512,-4.0527,-4.0525,-4.0549,-4.0551,-4.0552,-4.056,-4.0563,-4.0536,-4.0536,-4.0536,-4.0537,0,-3.9718,-3.9776,-3.9802,-3.9895,-3.9941,-3.999,-4.0063,-4.0102,-4.014,-4.0191,-4.026,-4.033,-4.0407,-4.0428,-4.0466,-4.0509,-4.0513,-4.0535,-4.0552,-4.0549,-4.0558,-4.0561,-4.0532,-4.0533,-4.0534,-4.0535,0,0,-3.968,-3.9808,-3.9817,-3.986,-3.9955,-4.0001,-4.0052,-4.0128,-4.0159,-4.0225,-4.0271,-4.0357,-4.0378,-4.0424,-4.0469,-4.0497,-4.0509,-4.0516,-4.0519,-4.0513,-4.0562,-4.0545,-4.0548,-4.0533,-4.0534,-4.0534,-4.0556,0,-3.9694,-3.979,-3.985,-3.9922,-3.9976,-4.0034,-4.0079,-4.0142,-4.0192,-4.0245,-4.03,-4.036,-4.0383,-4.0411,-4.0442,-4.0501,-4.052,-4.05,-4.0577,-4.0579,-4.0556,-4.0553,-4.0535,-4.0552,-4.056,-4.056,-4.0561,0,-3.9722,-3.9786,-3.9863,-3.9952,-3.9977,-4.0016,-4.009,-4.014,-4.0213,-4.0247,-4.0298,-4.0343,-4.0401,-4.0412,-4.0493,-4.0478,-4.0513,-4.0547,-4.0549,-4.0559,-4.057,-4.0563,-4.0559,-4.0562,-4.0567,-4.0566,-4.0566,0,-3.9687,-3.9792,-3.9852,-3.9887,-3.9992,-4.0018,-4.0063,-4.0136,-4.0178,-4.0242,-4.027,-4.034,-4.0379,-4.0432,-4.0495,-4.0498,-4.057,-4.0586,-4.06,-4.0599,-4.0613,-4.0612,-4.0615,-4.0634,-4.0634,-4.0634,-4.0634,0,-3.9696,-3.9741,-3.9838,-3.9874,-3.9926,-3.9995,-4.0045,-4.0095,-4.0159,-4.0207,-4.0262,-4.0306,-4.0386,-4.044,-4.0489,-4.0549,-4.0566,-4.0595,-4.0608,-4.0591,-4.0587,-4.0615,-4.0616,-4.0635,-4.0635,-4.0635,-4.0635,0,-3.9666,-3.9732,-3.9802,-3.9895,-3.992,-3.9954,-4.0035,-4.0073,-4.0125,-4.0185,-4.0203,-4.0285,-4.0351,-4.0419,-4.0508,-4.0542,-4.06,-4.0617,-4.0575,-4.0583,-4.0593,-4.0591,-4.0615,-4.0622,-4.0635,-4.0635,-4.0635,0,-3.9668,-3.9704,-3.9801,-3.9837,-3.988,-3.9937,-3.998,-4.0049,-4.0091,-4.0177,-4.0205,-4.0275,-4.0335,-4.0438,-4.0505,-4.0574,-4.0594,-4.0598,-4.0605,-4.0586,-4.0595,-4.0592,-4.0597,-4.0595,-4.0595,-4.0594,-4.0594,0,-3.9663,-3.9695,-3.9753,-3.9824,-3.9873,-3.9932,-3.9993,-4.0019,-4.01,-4.0144,-4.0213,-4.0259,-4.035,-4.042,-4.0497,-4.0544,-4.0583,-4.0591,-4.0598,-4.0581,-4.0555,-4.057,-4.0569,-4.059,-4.0591,-4.0591,-4.0591,-4.0591,-3.965,-3.9685,-3.9759,-3.9823,-3.9876,-3.9931,-3.9972,-4.0029,-4.0087,-4.0166,-4.0204,-4.0272,-4.0345,-4.0452,-4.0498,-4.0553,-4.0564,-4.0574,-4.0577,-4.0578,-4.0574,-4.0546,-4.0567,-4.0567,-4.0568,-4.0568,-4.0568,0,-3.9649,-3.97,-3.9758,-3.9841,-3.9891,-3.9923,-3.9992,-4.0032,-4.0091,-4.0155,-4.0213,-4.0292,-4.0359,-4.0432,-4.0504,-4.0534,-4.0554,-4.0551,-4.0549,-4.056,-4.056,-4.0547,-4.0533,-4.0533,-4.0533,-4.0533,-4.0533,-4.0533,-3.9655,-3.9715,-3.9755,-3.9843,-3.9893,-3.996,-3.9997,-4.0049,-4.01,-4.0185,-4.0241,-4.0288,-4.0357,-4.0434,-4.0497,-4.0517,-4.0541,-4.0533,-4.0558,-4.0557,-4.056,-4.0562,-4.055,-4.0538,-4.0538,-4.0554,-4.0554,-4.0554]},{"header":{"parameterUnit":"m.s-1","parameterCategory":1,"la1":30.2991,"la2":30.254,"lo1":-89.0895,"lo2":-89.0444,"dy":0.0017,"dx":0.0017,"nx":28,"ny":28,"refTime":"2023-11-20T03:00:00:Z","depth":0,"parameterNumber":3,"parameterNumberName":"V-component_of_WINDS"},"data":[0,0,0,0,0,0,0,0,0,0,0,0,0,0,0,0,0,0,0,0,0,0,0,0,0,0,0,0,0,0,0,0,0,0,0,0,0,0,0,0,0,0,0,0,0,0,0,0,0,0,0,0,0,0,0,0,0,0,5.517,5.517,0,5.5181,5.5181,5.5181,5.5124,5.5122,5.512,5.5119,5.5132,5.5134,5.5135,0,0,0,0,0,0,0,0,0,0,0,0,0,5.5102,5.5104,5.517,5.517,5.517,5.5181,5.5181,5.5181,5.5124,5.5122,5.512,5.5118,5.5131,5.5133,5.5136,0,0,0,0,0,0,0,0,0,0,0,0,0,5.5124,5.5104,5.517,5.5143,5.5141,5.5181,5.5181,5.5181,5.5125,5.5122,5.512,5.5117,5.513,5.5133,5.5136,5.5203,0,0,5.5145,5.5146,0,0,0,0,0,0,0,0,5.5123,5.5127,5.5147,5.5145,5.5142,5.5148,5.5162,5.5189,5.5125,5.5131,5.5119,5.5116,5.5139,5.5141,5.5149,5.5204,5.5204,5.5145,5.5146,5.5148,5.5148,0,0,0,0,0,0,0,5.5122,5.5126,5.5174,5.5147,5.5144,5.5131,5.5132,5.5167,5.5149,5.513,5.5126,5.5128,5.5138,5.5146,5.5149,5.5204,5.5145,5.5147,5.5149,5.515,5.5318,5.5321,0,0,0,0,0,0,5.5123,5.5125,5.5174,5.5175,5.5126,5.5134,5.5135,5.5149,5.5148,5.5146,5.513,5.5125,5.5143,5.5145,5.5149,5.523,5.5148,5.515,5.5152,5.5315,5.5319,5.5322,0,0,0,0,0,0,5.5122,5.5128,5.5173,5.5149,5.5153,5.5138,5.5155,5.5151,5.5159,5.5148,5.5145,5.5142,5.5141,5.5145,5.5191,5.523,5.5152,5.5154,5.5312,5.5316,5.532,5.5391,0,0,0,0,0,0,5.512,5.5128,5.5153,5.515,5.5155,5.5214,5.5157,5.5153,5.5164,5.5158,5.5159,5.5156,5.5139,5.5187,5.5193,5.5232,5.5156,5.5308,5.5314,5.5319,5.5385,5.5397,5.5407,0,0,0,0,0,5.5118,5.5172,5.5154,5.516,5.5185,5.5217,5.522,5.5198,5.5167,5.5193,5.5186,5.5156,5.5224,5.5192,5.5199,5.5239,5.5306,5.5312,5.5318,5.538,5.5395,5.5407,0,0,0,0,0,0,5.518,5.5171,5.5151,5.5205,5.5212,5.5207,5.5238,5.5214,5.523,5.5224,5.5197,5.5198,5.5249,5.5248,5.5212,5.5305,5.526,5.5268,5.5304,5.5318,5.5329,5.5329,5.5159,0,0,0,0,0,5.5199,5.5225,5.5216,5.5265,5.5269,5.5253,5.5266,5.5249,5.5255,5.5258,5.5255,5.5262,5.5286,5.5301,5.5322,5.5384,5.5385,5.5416,5.5427,5.5436,5.5444,5.548,5.5494,5.5342,5.5342,5.5342,0,0,5.5241,5.5239,5.5257,5.5277,5.528,5.5309,5.5256,5.5287,5.5309,5.5263,5.5306,5.5304,5.5311,5.5367,5.5391,5.5368,5.5486,5.5444,5.5451,5.5454,5.5488,5.5502,5.5515,5.5346,5.5345,5.5345,0,0,5.5331,5.5331,5.5374,5.5378,5.5384,5.5373,5.5384,5.5382,5.538,5.5423,5.539,5.5415,5.5454,5.5462,5.5471,5.5566,5.5541,5.5573,5.5632,5.5668,5.568,5.569,5.5728,5.5741,5.5581,5.5581,5.5581,0,5.5382,5.5423,5.5398,5.5433,5.5444,5.5404,5.5447,5.5453,5.5466,5.5475,5.5448,5.5499,5.5501,5.5559,5.5583,5.559,5.5603,5.5574,5.568,5.569,5.57,5.5735,5.5749,5.5585,5.5585,5.5584,5.5584,0,5.5487,5.5516,5.5549,5.5563,5.5577,5.5616,5.5599,5.5617,5.5599,5.5592,5.5638,5.5638,5.566,5.5672,5.5654,5.5728,5.5714,5.5684,5.5638,5.5719,5.5752,5.5765,5.5591,5.559,5.5589,5.5587,0,0,5.5617,5.5617,5.563,5.5637,5.5641,5.5664,5.5702,5.5723,5.574,5.575,5.5783,5.5818,5.5792,5.5802,5.5785,5.5816,5.5896,5.5782,5.5782,5.5806,5.5981,5.6005,5.6021,5.5878,5.588,5.5882,5.5981,0,5.5707,5.5772,5.5752,5.5818,5.5846,5.5809,5.5842,5.5849,5.5844,5.5868,5.5861,5.5888,5.5849,5.5856,5.5884,5.588,5.5931,5.5872,5.5911,5.5912,5.5913,5.6038,5.6063,5.6157,5.5994,5.5996,5.5997,0,5.5822,5.5838,5.5907,5.5909,5.592,5.595,5.5969,5.5992,5.6,5.5994,5.6006,5.5984,5.6023,5.5975,5.603,5.5991,5.6006,5.6006,5.6009,5.6014,5.5961,5.6049,5.6186,5.6201,5.6016,5.6015,5.6013,0,5.5914,5.5952,5.5999,5.6005,5.6008,5.6031,5.6033,5.6039,5.6054,5.607,5.608,5.6101,5.6113,5.6131,5.6115,5.6081,5.6174,5.6124,5.6172,5.6173,5.6195,5.6195,5.634,5.62,5.62,5.62,5.62,0,5.6019,5.6063,5.604,5.607,5.6119,5.6096,5.6146,5.6144,5.615,5.6179,5.6147,5.6176,5.6152,5.6179,5.6167,5.6217,5.6222,5.622,5.6217,5.6224,5.6225,5.6235,5.6229,5.6204,5.6203,5.6202,5.6201,0,5.613,5.6116,5.6166,5.6165,5.6165,5.6202,5.6202,5.623,5.6222,5.626,5.6268,5.6256,5.6287,5.6273,5.6304,5.6296,5.6361,5.6347,5.6358,5.6356,5.6406,5.6403,5.6565,5.6586,5.6431,5.6432,5.6433,0,5.6199,5.6233,5.6236,5.6253,5.6258,5.6286,5.6302,5.628,5.6298,5.6311,5.6338,5.6365,5.6387,5.6437,5.6433,5.6458,5.6446,5.6501,5.645,5.6458,5.6451,5.6451,5.6455,5.6513,5.6514,5.6516,5.6517,0,5.6325,5.6317,5.634,5.6362,5.6381,5.6397,5.641,5.6426,5.6405,5.6427,5.6458,5.6474,5.6507,5.6536,5.6558,5.6562,5.6538,5.6533,5.6546,5.6556,5.6562,5.6563,5.639,5.653,5.6529,5.6528,5.6527,5.6527,5.6419,5.6449,5.6456,5.6484,5.6492,5.6505,5.6532,5.6529,5.6554,5.6579,5.6565,5.6602,5.6611,5.6639,5.6646,5.6676,5.6654,5.6672,5.6677,5.6683,5.6691,5.6555,5.6679,5.6679,5.6678,5.6678,5.6678,0,5.6546,5.6549,5.6575,5.6595,5.6617,5.6591,5.6605,5.6626,5.6659,5.6669,5.6691,5.6728,5.6757,5.6755,5.6781,5.6806,5.6796,5.6814,5.6813,5.6815,5.6707,5.6695,5.6822,5.6822,5.6822,5.6822,5.6822,5.6822,5.6615,5.6664,5.6658,5.6711,5.6714,5.675,5.6761,5.6774,5.6783,5.6826,5.6849,5.6847,5.6854,5.6881,5.6907,5.6906,5.6919,5.6942,5.6937,5.6837,5.6822,5.6809,5.6797,5.6944,5.6944,5.7043,5.7044,5.7045]}]]